Location: Newark
(47.7394°N, 8.0008°E)
Time: 12:03:59
(UTC+00:00)

N. Korean satellite - Pass Details

Date: 20 December 2019
Orbit: 454 x 508 km, 97.2° (Epoch: 17 January)

Event Time Altitude Azimuth Distance (km) Brightness Sun altitude
Rises 05:25:21 0° 12° (NNE) 2,514 10.2 -17.1°
Reaches altitude 10° 05:27:26 10° 13° (NNE) 1,625 9.2 -16.8°
Maximum altitude 05:30:55 88° 102° (ESE) 466 6.4 -16.2°
Drops below altitude 10° 05:34:20 10° 193° (SSW) 1,593 9.2 -15.7°
Sets 05:36:20 0° 194° (SSW) 2,458 10.2 -15.3°
